Погода в Чамбараке

Армения     40°35′44″N   45°21′23″E
темп.,
°C
ветер,
м/с
пор.,
м/с
влажн.,
%
обл.,
%
осадки,
мм/ч
давл.,
гПа
погр.,
м
18 мая, ср
ср1801:00+6св2281100 0.0 1016296
04:00+6св228219 0.0 1016212
07:00+6всв228224 0.0 1016196
10:00+9вюв117129 0.3 1015617
13:00+11ссв226427 1.1 1015673
16:00+13сз245428 2.4 10121316
19:00+12с33705 0.9 1013256
22:00+9ссв338310 1.6 101695
19 мая, чт
чт1901:00+9ссз228139 0.2 101696
04:00+9ююз11765 0.2 1015115
07:00+10ююз12732 0.0 1016198
10:00+12ююз12642 0.0 1015511
13:00+14юз225229 0.3 1014714
16:00+16з454781 0.6 10121021
19:00+11зсз8983100 1.4 1014436
22:00+10ссз117567 3.6 101462
20 мая, пт
пт2001:00+10з12731 1.0 1013106
04:00+10зюз47642 1.4 1012486
07:00+10з37643 0.2 1012437
10:00+10сз566937 0.6 1012452
13:00+7с558598 1.5 1014559
16:00+3с6699100 5.8 1018338
19:00+2зсз1386100 5.0 1020400
22:00+1сз22826 5.0 1022298
21 мая, сб
сб2101:00+1сз22865 0.0 1022237
04:00+1с22805 0.0 1022262
07:00+2ссв22816 0.0 1022320
10:00+4св117212 0.0 1021711
13:00+6зсз11604 0.0 1019780
16:00+8зсз33633 0.0 1017668
19:00+10зсз23541 0.0 1016484
22:00+7з21570 0.0 1016106
22 мая, вс
вс2201:00+7зсз22560 0.0 1016154
04:00+7зюз225993 0.0 1015154
07:00+8зюз12570 0.0 1015249
10:00+10зюз22500 0.0 1013523
13:00+14зсз33450 0.0 1011898
16:00+16з22430 0.0 1008588
19:00+15ссз22530 0.0 1007236
22:00+12ссв11650 0.0 100881